Dewpoint
-8 -8 -8 -8 -9 -8 -5 3 4 6 7 8 8 7 7 6 6 7 7 3 2 4 7 4 9 9 10 7 5 2 4 4 3 3 2 -2 1 2 2 1 -1 -1 0 1 -1
-6 -6 -5 -5 -5 -7 -8 -7 -6 -2 3 5 7 7 6 6 6 7 4 3 2 2 6 9 9 10 9 7 6 4 5 4 2 1 1 1 2 3 3 1 0 -2 -1 -0 -0
-4 -4 -4 -3 -4 -4 -4 -4 -3 -4 -2 1 3 4 4 4 6 5 3 1 1 3 6 8 10 10 9 7 6 5 5 3 2 2 1 2 3 3 3 3 0 -0 -1 -1 -0
-1 -1 -5 -6 -4 -4 -2 -2 -2 3 2 -0 1 2 3 5 3 6 4 4 3 6 7 6 8 10 9 8 5 5 4 3 3 3 3 3 3 4 4 3 3 2 2 1 -1
0 -0 -5 -5 -1 -1 -3 -2 -1 0 1 1 0 2 4 5 3 5 5 5 4 5 8 5 8 9 9 7 5 5 3 3 3 3 3 4 4 4 4 3 3 3 2 0 -1
1 1 1 2 3 2 2 -0 -3 -1 2 2 2 3 5 4 2 2 4 3 3 6 8 5 7 7 7 7 6 5 5 4 4 4 4 4 4 3 2 2 2 0 0 0 -1
-0 2 4 4 4 3 2 2 -0 -2 -2 1 2 3 5 3 1 1 1 1 2 3 5 6 7 8 6 8 7 5 6 5 4 4 4 3 4 3 2 -1 -2 -2 -1 -1 -2
-3 3 1 2 1 2 3 4 2 1 -2 -2 2 3 4 3 1 1 1 2 1 1 4 5 7 9 8 6 6 7 7 8 4 4 4 3 5 1 0 -2 -2 -2 -2 1 -0
-4 3 2 1 -0 1 3 5 4 2 2 -1 2 4 2 2 2 0 2 2 4 2 3 5 6 9 7 7 8 8 9 8 5 3 3 3 4 0 -1 -1 -2 -2 -1 1 2
-4 1 2 1 2 4 3 4 4 2 3 2 2 4 2 2 2 2 2 1 2 5 5 6 6 9 8 8 11 8 8 4 6 3 2 4 3 0 -1 -1 -2 -2 -1 1 1
-4 -0 1 2 4 5 4 5 4 3 3 2 1 1 2 3 2 3 2 2 1 5 5 5 7 9 9 7 5 4 4 5 4 3 2 3 3 1 -0 0 -2 -2 -1 1 1
-5 -2 1 2 3 5 5 4 3 2 2 3 2 2 3 3 4 2 3 1 2 5 5 5 8 7 7 7 4 4 5 5 4 2 2 3 4 3 1 -1 -1 -2 -1 1 2
-5 -3 0 2 4 5 5 5 4 2 3 3 2 3 3 2 2 2 3 1 1 3 6 6 6 6 7 6 6 6 6 5 5 3 4 3 4 2 -1 -2 -2 -3 -1 1 1
-4 -3 -1 2 5 4 5 5 5 3 4 4 3 2 3 2 3 1 3 0 2 4 5 3 5 7 8 6 5 8 4 4 6 8 9 3 7 3 -0 -1 -1 -1 1 1 2
-2 -3 -1 2 5 5 4 4 4 2 6 2 3 2 2 1 1 1 3 1 3 4 5 6 7 9 9 7 5 5 5 5 7 8 6 6 6 3 -0 -1 -1 -0 1 1 2
3 -2 -1 2 4 5 5 4 3 4 5 5 3 3 2 2 -1 3 3 1 3 5 3 3 7 8 7 5 5 5 5 4 3 3 8 5 4 3 -1 -1 -1 -0 1 2 2
6 2 -0 0 4 5 5 3 5 6 3 6 5 3 2 3 2 4 3 4 5 7 7 3 5 9 6 7 5 5 7 11 11 10 8 1 3 2 -1 -2 -2 -0 1 2 3
6 5 3 2 1 4 4 4 7 3 5 4 3 2 3 2 2 4 3 3 5 6 5 8 10 9 7 7 7 6 6 7 9 8 6 2 4 0 -3 -2 -2 -1 1 2 3
6 5 5 4 3 3 3 5 5 4 4 5 2 3 2 2 2 3 2 2 4 4 6 6 9 7 7 6 6 8 8 3 4 3 4 3 2 -0 -1 -1 -1 -1 1 3 3
6 5 2 3 4 4 3 5 5 4 4 4 3 2 3 2 3 4 3 1 3 3 4 2 9 7 6 7 5 7 5 8 5 7 6 4 3 2 -0 -1 0 -0 1 2 3
6 4 5 5 4 4 5 5 5 4 4 5 1 1 0 2 2 3 3 4 2 2 4 3 4 4 4 8 8 7 8 7 4 4 5 4 2 -1 -1 -1 -1 -0 1 2 3
3 6 6 5 4 4 5 4 4 4 4 4 2 -2 -0 0 2 7 3 5 1 2 5 4 2 5 8 1 3 5 6 7 7 5 3 2 2 -3 -2 -2 -1 -0 1 2 3
4 6 6 4 6 5 4 5 4 4 5 4 5 -1 -1 -1 1 6 3 1 4 4 3 2 3 6 6 4 1 5 5 6 4 1 4 5 3 -2 -0 1 0 1 1 2 3
5 7 5 5 5 6 6 6 6 5 5 6 6 3 -1 -0 1 4 5 4 5 4 3 1 3 2 5 3 2 5 5 3 5 6 4 2 1 -1 0 1 1 1 1 2 3
2 5 5 6 5 6 6 6 7 8 7 8 7 3 1 0 5 5 6 6 5 5 4 3 4 3 2 2 2 3 4 3 4 4 4 3 2 -0 -2 0 1 1 1 1 2
3 4 4 5 5 6 6 6 7 6 7 7 8 4 2 1 5 6 6 6 7 5 5 3 5 2 2 2 2 2 2 3 4 4 3 1 1 -2 -2 -1 -1 1 1 1 1
4 2 2 1 2 7 7 7 8 6 7 4 6 4 4 3 3 3 4 4 4 5 5 4 4 3 5 0 2 4 3 2 1 0 0 2 1 -1 -0 -1 -0 1 1 1 1
Wind_Speed
10 10 10 10 10 10 13 16 16 16 15 16 16 14 14 14 14 15 14 14 10 11 12 19 23 18 11 8 7 6 7 11 13 9 2 2 4 5 8 11 9 8 7 5 13
9 9 9 10 10 11 11 12 14 16 16 17 16 15 15 15 16 21 22 17 14 11 14 8 14 17 16 11 8 12 10 16 9 9 5 4 9 10 8 11 14 11 8 8 10
8 9 8 8 8 8 9 10 10 12 14 16 17 18 17 14 10 17 21 20 18 16 13 12 12 12 23 15 15 11 16 10 10 11 6 7 12 7 12 12 9 13 15 15 15
8 8 7 7 7 7 8 8 9 9 11 13 15 15 14 10 7 4 3 10 21 20 16 16 18 9 14 18 19 13 18 14 10 7 6 10 10 14 17 27 20 21 20 20 16
8 6 5 5 7 8 9 8 8 11 10 11 13 15 14 12 17 7 5 6 2 15 22 22 21 18 19 23 20 18 17 16 16 12 12 12 16 19 25 30 24 23 19 14 14
9 8 5 6 7 8 10 10 10 11 11 12 12 15 13 15 14 19 16 10 1 4 19 23 17 24 15 23 25 15 21 19 15 15 15 13 20 6 27 22 25 17 15 14 14
12 10 9 10 9 9 11 12 12 12 12 13 13 15 14 21 9 10 19 24 24 13 19 23 26 18 18 15 18 27 13 13 17 17 15 9 18 20 24 16 19 13 11 8 9
14 13 11 12 11 13 12 13 13 12 12 13 13 14 12 15 25 18 11 8 17 19 16 21 24 20 19 12 11 19 15 18 19 16 16 10 19 13 8 4 6 4 3 1 2
16 14 13 13 12 14 14 11 12 12 11 12 13 11 11 10 24 25 24 15 5 15 19 10 21 9 21 11 9 14 16 22 19 14 12 12 14 8 7 15 15 13 4 4 3
17 14 13 14 13 12 14 12 16 13 12 9 11 7 17 11 14 18 23 21 14 12 14 15 15 9 15 13 18 16 17 14 18 14 13 17 18 15 17 12 13 8 8 7 6
17 14 13 14 14 12 11 16 9 6 19 14 9 10 3 8 8 11 13 18 18 15 12 27 10 21 25 24 16 19 18 15 14 10 6 14 19 14 19 16 15 11 11 9 8
16 14 12 13 15 10 16 18 19 6 7 27 14 27 3 6 4 17 14 18 19 20 18 16 21 22 20 23 22 19 18 16 12 5 7 14 19 17 18 16 12 12 14 15 13
15 14 13 10 12 15 20 26 18 14 2 7 34 19 11 18 8 10 22 23 15 15 18 22 15 14 23 24 22 16 17 15 12 5 9 10 20 15 7 6 5 7 13 16 18
15 14 13 9 11 17 20 25 25 17 3 5 11 12 20 13 9 24 21 19 10 18 19 17 16 23 22 26 24 20 12 10 7 4 5 3 5 9 9 6 6 11 16 17 18
14 14 12 12 6 7 7 10 24 11 5 10 8 4 10 18 2 17 22 25 14 12 8 12 14 16 20 28 25 11 13 11 7 8 4 9 6 4 3 7 8 13 18 19 18
12 13 13 14 15 14 7 8 19 3 7 8 8 10 11 23 13 4 18 19 8 10 22 14 8 14 23 19 21 12 12 7 4 2 7 11 9 5 3 3 5 14 19 20 20
13 13 16 15 10 13 13 22 3 6 5 6 5 10 15 10 12 8 16 22 6 6 10 10 14 4 20 19 8 16 16 4 5 5 6 4 7 10 3 2 4 15 21 22 21
14 13 17 18 18 9 31 3 8 4 5 4 8 13 12 11 13 12 15 18 10 11 11 7 4 10 17 19 10 16 15 4 6 6 6 4 6 1 5 3 4 13 22 23 22
14 13 17 22 20 19 17 5 4 4 6 10 14 11 11 11 8 13 14 15 8 14 4 9 4 1 3 5 13 5 10 3 2 1 3 5 4 3 3 2 3 13 23 24 24
16 11 20 12 25 25 4 6 5 5 8 11 10 12 15 16 9 14 15 14 10 15 11 9 2 2 2 7 7 5 7 4 2 5 4 4 3 2 3 2 4 12 23 25 23
12 3 4 12 27 13 4 6 4 7 11 11 9 10 14 16 12 12 13 6 20 15 15 6 8 8 7 6 12 6 4 2 4 2 2 3 4 3 5 6 4 10 23 24 23
5 3 7 29 6 4 5 5 6 11 20 12 9 9 15 18 14 8 15 9 26 12 10 8 5 5 5 2 10 10 12 11 4 5 2 3 2 3 5 5 3 9 20 21 22
5 5 8 32 4 6 6 8 9 8 12 10 10 12 13 14 10 10 15 16 24 17 11 11 7 8 6 3 2 6 11 15 11 2 10 8 3 1 2 3 3 11 20 21 21
6 3 5 20 6 2 8 8 11 17 10 12 10 11 15 14 10 12 10 9 26 23 23 1 4 11 10 7 11 12 19 17 18 11 10 11 7 5 4 3 6 12 18 20 20
9 4 7 5 10 12 6 4 8 6 7 12 3 13 17 12 12 12 13 10 16 25 12 4 4 7 4 3 15 19 19 21 22 22 14 15 17 16 10 7 9 13 17 19 19
6 4 4 4 13 14 13 10 15 10 7 7 8 16 17 15 14 14 11 10 9 17 17 10 3 3 2 2 8 11 19 21 24 22 24 18 16 4 6 10 11 13 17 17 18
11 9 2 3 5 5 4 5 9 11 8 7 15 16 15 12 9 14 18 11 9 14 18 12 6 3 3 3 4 7 18 19 20 21 21 20 20 10 8 9 12 12 12 12 13
Wind_Direction
291 288 285 279 274 263 248 245 249 245 245 237 237 241 244 250 255 257 245 257 267 231 229 230 226 223 224 229 213 203 230 236 238 222 233 170 306 319 295 282 286 277 273 333 326
293 289 284 284 284 276 263 251 246 245 244 241 238 237 240 246 252 250 258 260 261 235 237 255 223 212 209 216 207 214 229 234 242 238 240 275 298 308 296 286 283 271 273 301 325
291 293 279 281 285 282 271 260 250 247 245 243 241 241 243 245 261 267 270 258 252 250 247 238 218 215 214 213 207 208 233 226 229 235 255 281 284 285 290 280 273 297 298 296 299
292 297 276 275 286 285 280 268 248 248 246 242 239 233 233 214 243 99 206 223 225 225 223 234 221 209 214 206 210 224 232 226 234 235 253 268 285 280 278 273 280 287 293 296 296
287 291 268 279 296 296 286 272 258 241 244 243 233 225 216 216 230 194 139 106 40 220 212 208 218 218 212 211 207 225 227 227 239 252 260 272 271 279 279 277 284 281 280 282 289
273 271 254 260 274 280 291 273 256 248 232 236 230 221 215 236 239 230 227 231 274 198 214 211 218 216 235 223 210 210 233 240 243 252 259 268 275 292 269 287 287 279 268 273 284
262 270 273 274 281 283 282 271 258 247 238 228 226 225 225 230 225 218 237 240 246 225 219 217 219 212 217 213 223 226 228 232 243 247 248 262 269 252 278 292 282 271 261 265 278
263 260 267 271 275 271 261 267 254 247 233 224 228 224 240 244 240 234 236 237 243 234 220 222 224 254 241 214 193 212 233 237 231 227 243 222 261 266 270 308 311 286 232 222 278
268 259 266 274 277 274 253 256 242 231 229 220 221 214 255 242 229 237 230 234 239 212 210 223 214 231 212 196 182 214 211 223 237 210 232 218 262 255 230 292 274 254 229 161 127
269 258 261 271 281 279 246 257 218 214 203 198 217 210 237 225 226 227 231 226 225 219 203 201 195 222 210 198 201 182 211 221 226 223 226 228 246 257 281 277 268 237 198 169 144
270 259 259 270 282 276 232 175 152 199 201 197 210 215 125 231 225 218 219 200 208 223 203 199 201 221 190 201 202 201 211 215 216 208 240 247 262 263 276 274 252 222 197 169 145
265 257 253 270 280 250 215 197 200 180 217 225 234 220 226 133 239 222 199 181 195 216 222 182 214 225 196 188 202 215 202 215 235 200 249 263 271 277 270 261 248 220 187 168 150
260 254 251 265 279 233 230 227 230 209 222 231 218 223 223 231 237 218 190 202 218 201 225 196 205 222 205 192 199 199 198 201 220 180 242 277 276 252 207 191 186 198 181 169 159
259 251 253 264 274 249 254 232 227 201 274 207 188 230 219 218 236 218 208 198 221 199 218 211 207 204 196 189 191 194 199 193 187 261 245 329 285 242 234 230 206 172 169 164 158
261 247 242 238 253 205 233 276 201 163 264 131 158 198 204 193 143 191 199 210 231 171 199 206 198 215 188 191 194 204 165 210 233 257 292 225 257 243 188 235 198 174 169 167 162
270 247 232 239 250 242 227 217 153 167 241 175 149 186 165 209 235 176 183 207 199 227 201 196 249 224 201 185 191 141 142 125 123 233 244 230 231 267 171 83 153 169 172 167 163
272 253 234 236 241 232 215 144 161 232 126 174 175 176 184 180 191 227 189 196 175 158 191 236 256 238 169 158 168 171 166 145 186 205 240 149 206 257 182 239 154 174 177 172 167
270 240 239 238 234 218 163 156 227 200 179 149 179 171 188 171 196 208 193 197 217 284 147 207 193 150 168 168 167 187 172 200 184 194 175 191 230 154 82 302 197 194 179 171 170
262 239 237 241 222 202 159 219 248 177 169 162 163 165 200 192 177 195 202 200 223 232 120 201 294 12 69 124 146 171 200 119 138 69 223 172 231 212 140 76 179 185 175 176 175
235 248 267 243 209 192 175 242 234 178 166 184 173 186 194 185 186 188 183 202 216 219 224 182 101 163 119 120 45 145 162 169 248 188 214 189 242 178 159 6 143 177 183 177 175
233 243 235 191 176 165 215 224 240 227 162 182 200 177 199 184 186 194 192 182 199 195 217 289 223 113 145 206 163 154 161 165 293 288 238 162 137 96 302 310 256 186 184 177 175
189 228 205 165 157 196 220 206 222 226 188 203 251 194 191 186 185 193 201 208 195 198 189 229 210 146 153 67 181 173 171 186 204 181 242 339 122 148 314 310 234 180 179 178 175
196 181 198 168 204 203 224 234 232 248 178 187 211 193 177 180 181 215 209 210 188 189 196 184 188 138 144 142 125 198 190 203 224 318 204 215 170 99 98 97 126 162 172 173 173
180 167 149 212 247 250 222 249 237 216 218 217 183 178 159 178 215 190 222 172 189 197 208 231 201 216 197 197 164 193 201 208 201 222 213 225 228 172 167 150 148 163 173 174 176
197 217 181 188 232 236 226 259 263 175 216 190 192 180 173 176 196 187 173 155 188 205 206 243 243 210 234 157 187 191 195 200 210 219 225 240 232 245 240 197 170 169 172 177 181
196 192 193 256 214 223 225 232 208 223 178 203 234 189 186 179 195 182 168 177 174 202 205 225 220 185 168 176 211 210 218 212 216 224 232 247 248 268 166 147 154 167 175 186 192
220 232 201 219 189 189 206 214 208 179 223 255 201 180 193 197 182 186 173 155 181 184 193 206 218 208 214 123 160 248 223 213 220 224 224 232 243 174 171 178 173 167 171 182 189
Height
1499 1498 1497 1496 1497 1497 1498 1499 1500 1502 1503 1504 1505 1506 1508 1509 1510 1511 1511 1514 1515 1517 1517 1518 1522 1524 1527 1527 1527 1526 1522 1521 1518 1519 1513 1516 1516 1516 1515 1512 1510 1509 1507 1506 1504
1497 1495 1495 1494 1494 1495 1496 1497 1498 1498 1500 1501 1503 1503 1505 1507 1508 1506 1509 1510 1512 1514 1516 1518 1520 1522 1523 1523 1524 1521 1517 1514 1515 1513 1512 1515 1516 1516 1515 1509 1508 1505 1504 1505 1503
1495 1493 1493 1493 1492 1492 1493 1494 1495 1495 1497 1498 1499 1500 1502 1505 1507 1501 1503 1505 1508 1511 1514 1517 1517 1519 1518 1518 1518 1516 1512 1513 1514 1515 1516 1513 1513 1514 1512 1506 1504 1504 1502 1502 1501
1493 1491 1491 1491 1491 1491 1491 1491 1492 1493 1494 1495 1496 1497 1499 1503 1505 1498 1497 1499 1501 1505 1511 1515 1515 1515 1514 1510 1513 1514 1512 1512 1513 1515 1514 1512 1511 1509 1509 1503 1504 1502 1500 1498 1497
1491 1489 1488 1489 1489 1489 1489 1490 1490 1491 1492 1493 1494 1496 1497 1499 1499 1498 1497 1497 1498 1500 1506 1510 1513 1512 1508 1507 1510 1510 1507 1510 1512 1512 1512 1512 1508 1507 1504 1499 1500 1497 1496 1495 1494
1488 1487 1486 1486 1486 1486 1487 1488 1489 1490 1491 1491 1492 1493 1494 1496 1493 1494 1495 1496 1497 1500 1503 1507 1509 1509 1507 1505 1503 1505 1508 1507 1508 1509 1509 1509 1504 1505 1494 1496 1494 1493 1492 1492 1490
1485 1485 1484 1484 1484 1483 1484 1486 1486 1487 1488 1489 1490 1491 1491 1489 1489 1489 1490 1493 1493 1497 1500 1504 1508 1508 1504 1504 1503 1503 1505 1504 1503 1505 1504 1505 1499 1496 1493 1493 1490 1489 1488 1488 1485
1482 1481 1480 1480 1480 1481 1481 1482 1484 1485 1486 1487 1488 1489 1484 1481 1485 1485 1487 1489 1488 1492 1497 1501 1505 1503 1501 1498 1501 1500 1504 1501 1494 1499 1500 1504 1493 1487 1490 1490 1487 1487 1486 1485 1483
1477 1477 1477 1477 1477 1477 1477 1478 1480 1482 1483 1484 1487 1488 1482 1477 1476 1480 1483 1486 1486 1488 1492 1495 1501 1496 1495 1496 1501 1494 1493 1497 1491 1494 1495 1498 1487 1485 1487 1485 1484 1483 1484 1483 1483
1473 1473 1473 1473 1473 1473 1473 1474 1476 1480 1481 1483 1484 1489 1477 1471 1472 1473 1477 1481 1485 1487 1489 1492 1497 1491 1487 1487 1483 1484 1490 1481 1489 1487 1492 1488 1484 1483 1481 1482 1479 1479 1480 1480 1481
1468 1469 1469 1469 1469 1469 1470 1470 1476 1478 1475 1470 1471 1468 1466 1468 1470 1470 1474 1478 1482 1484 1483 1482 1486 1475 1473 1473 1475 1478 1479 1483 1485 1484 1489 1483 1477 1478 1475 1474 1475 1475 1476 1477 1479
1464 1464 1464 1465 1465 1465 1465 1463 1463 1465 1467 1466 1468 1468 1467 1465 1467 1467 1471 1473 1476 1471 1476 1473 1474 1470 1471 1473 1473 1472 1479 1481 1480 1485 1488 1479 1472 1470 1467 1466 1468 1468 1471 1473 1478
1459 1460 1460 1461 1460 1460 1459 1460 1460 1461 1464 1459 1458 1463 1463 1466 1464 1462 1466 1465 1464 1467 1469 1462 1467 1468 1464 1463 1469 1474 1477 1478 1480 1485 1483 1481 1465 1457 1462 1465 1466 1466 1468 1473 1475
1454 1455 1456 1458 1458 1455 1454 1454 1457 1460 1462 1454 1454 1456 1459 1461 1459 1460 1461 1463 1459 1460 1468 1461 1460 1462 1459 1459 1464 1473 1472 1475 1483 1485 1482 1478 1471 1455 1452 1456 1462 1463 1467 1471 1475
1450 1451 1452 1453 1453 1452 1452 1452 1451 1461 1448 1446 1450 1451 1450 1455 1450 1451 1455 1459 1453 1456 1466 1459 1456 1456 1453 1449 1459 1464 1472 1476 1481 1484 1488 1473 1479 1449 1455 1451 1456 1460 1465 1470 1474
1445 1446 1447 1449 1449 1449 1449 1451 1454 1459 1439 1442 1444 1445 1448 1450 1449 1450 1450 1456 1457 1453 1456 1448 1454 1452 1445 1453 1461 1468 1473 1481 1484 1486 1481 1463 1470 1445 1443 1446 1452 1459 1464 1468 1473
1440 1441 1442 1444 1446 1446 1447 1449 1453 1439 1438 1437 1438 1440 1440 1443 1446 1448 1445 1453 1457 1451 1454 1452 1450 1442 1443 1455 1465 1462 1469 1491 1495 1491 1470 1471 1472 1442 1443 1449 1450 1455 1462 1467 1471
1435 1435 1436 1439 1442 1443 1442 1449 1434 1421 1428 1432 1430 1435 1436 1437 1440 1443 1441 1446 1452 1448 1448 1455 1441 1438 1437 1446 1456 1459 1459 1458 1468 1465 1458 1477 1460 1441 1446 1449 1451 1453 1459 1465 1470
1429 1429 1429 1431 1436 1439 1440 1438 1418 1417 1426 1427 1428 1434 1432 1432 1430 1437 1436 1439 1446 1445 1446 1449 1448 1439 1443 1447 1453 1465 1463 1460 1462 1467 1459 1449 1445 1442 1447 1447 1450 1452 1457 1462 1467
1423 1423 1421 1423 1429 1434 1437 1426 1421 1419 1424 1424 1418 1424 1423 1424 1428 1431 1436 1431 1438 1439 1442 1434 1447 1445 1450 1452 1458 1456 1459 1472 1463 1464 1463 1449 1450 1437 1441 1443 1448 1450 1454 1459 1465
1419 1421 1416 1417 1425 1428 1425 1422 1418 1418 1419 1423 1414 1416 1416 1419 1423 1426 1428 1427 1431 1432 1439 1435 1431 1450 1452 1451 1451 1461 1466 1468 1459 1455 1447 1446 1439 1437 1440 1441 1443 1446 1451 1457 1463
1415 1417 1413 1415 1423 1423 1419 1416 1415 1411 1413 1416 1413 1408 1410 1414 1419 1431 1422 1424 1425 1428 1433 1432 1421 1432 1446 1445 1444 1444 1449 1452 1457 1460 1457 1451 1440 1440 1442 1442 1443 1445 1451 1457 1462
1412 1412 1411 1413 1411 1411 1412 1410 1412 1409 1408 1412 1406 1403 1407 1411 1419 1427 1418 1419 1422 1425 1425 1426 1424 1435 1442 1446 1447 1447 1445 1446 1445 1451 1448 1449 1440 1440 1441 1442 1443 1445 1450 1455 1461
1408 1407 1411 1410 1405 1403 1405 1404 1402 1396 1398 1401 1400 1399 1404 1410 1409 1415 1415 1417 1420 1422 1424 1428 1421 1418 1425 1423 1428 1440 1440 1442 1443 1447 1442 1441 1432 1437 1439 1440 1443 1446 1450 1454 1459
1402 1398 1399 1402 1402 1400 1400 1394 1392 1389 1393 1394 1395 1392 1395 1403 1408 1407 1409 1415 1420 1420 1426 1428 1419 1420 1422 1425 1424 1429 1434 1437 1437 1433 1437 1428 1436 1431 1431 1437 1440 1444 1449 1453 1457
1396 1395 1396 1393 1394 1393 1393 1387 1385 1388 1388 1391 1392 1388 1388 1391 1397 1402 1404 1407 1411 1419 1424 1426 1422 1423 1425 1427 1425 1427 1425 1426 1427 1428 1427 1428 1427 1429 1434 1438 1441 1443 1446 1450 1454
1389 1390 1392 1385 1385 1388 1382 1379 1376 1381 1384 1383 1382 1384 1389 1389 1394 1395 1400 1404 1405 1411 1418 1421 1421 1423 1421 1428 1429 1429 1419 1422 1422 1422 1422 1426 1417 1430 1435 1437 1439 1442 1444 1448 1451